Location: 22
(39.7117°N, 89.5929°W)
Time: 20:07:57
(UTC-05:00)

Vanguard 3 - Pass Details

Date: 06 February 2023
Orbit: 508 x 3249 km, 33.4° (Epoch: 30 March)

Event Time Altitude Azimuth Distance (km) Brightness Sun altitude
Rises 22:14:16 0° 275° (W) 5,064 11.7 -54.6°
Reaches altitude 10° 22:17:12 10° 271° (W) 4,385 11.2 -55.0°
Enters shadow 22:23:04 34° 253° (WSW) 3,379 10.2 -55.9°
Maximum altitude 22:29:42 52° 200° (SSW) 3,178 - -56.9°
Drops below altitude 10° 22:47:56 10° 131° (SE) 6,174 - -59.5°
Sets 22:53:02 0° 127° (SE) 7,198 - -60.1°
